Location: Ajisawe
(8.4333°N, 4.3833°E)
Time: 15:42:12
(UTC+00:00)

Tiros 1 despin weight - All Passes

Search period start: 11 April 2021 00:00
Search period end: 21 April 2021 00:00
Orbit: 593 x 641 km, 48.2° (Epoch: 10 April)

Date Brightness Start Highest point End Pass type
(mag) Time Alt. Az. Time Alt. Az. Time Alt. Az.
11 Apr - 04:35:54 10° S 04:39:04 18° SE 04:42:13 10° E visible
11 Apr - 06:16:15 10° WSW 06:20:26 34° NW 06:24:34 10° NNE daylight
11 Apr - 16:38:56 10° NW 16:43:18 66° SW 16:47:44 10° SSE daylight
12 Apr - 04:50:53 10° SSW 04:55:20 47° SE 04:59:43 10° NE visible
12 Apr - 06:34:24 10° WNW 06:36:50 14° NW 06:39:14 10° NNW daylight
12 Apr - 15:14:35 10° N 15:18:11 24° NE 15:21:49 10° ESE daylight
12 Apr - 16:56:00 10° WNW 16:59:33 24° SW 17:03:07 10° S daylight
13 Apr - 03:30:02 10° SE 03:30:14 10° SE 03:30:28 10° SE visible
13 Apr - 05:07:00 10° SW 05:11:36 62° NW 05:16:06 10° NNE visible
13 Apr - 15:30:08 10° NNW 15:34:30 66° NE 15:38:55 10° SE daylight
14 Apr - 03:42:36 10° S 03:46:31 27° SE 03:50:23 10° ENE visible
14 Apr - 05:24:11 10° WSW 05:27:55 24° NW 05:31:37 10° N daylight
14 Apr - 14:06:55 10° NNE 14:09:18 14° NE 14:11:41 10° E daylight
14 Apr - 15:46:36 10° WNW 15:50:45 42° SW 15:54:58 10° SSE daylight
15 Apr - 03:58:08 10° SSW 04:02:46 73° SE 04:07:20 10° NE visible
15 Apr - 14:21:39 10° NNW 14:25:42 36° NE 14:29:45 10° ESE daylight
15 Apr - 16:04:18 10° W 16:07:00 16° SW 16:09:43 10° SSW daylight
16 Apr - 02:34:57 10° SSE 02:37:41 15° SE 02:40:26 10° E visible
16 Apr - 04:14:39 10° WSW 04:19:02 41° NW 04:23:22 10° NNE visible
16 Apr - 14:37:35 10° NW 14:41:58 80° SW 14:46:24 10° SE daylight
17 Apr - 02:49:35 10° SSW 02:53:56 39° SE 02:58:15 10° ENE visible
17 Apr - 04:32:25 10° W 04:35:25 17° NW 04:38:23 10° N visible
17 Apr - 13:13:32 10° N 13:16:50 21° NE 13:20:08 10° E daylight
17 Apr - 14:54:26 10° WNW 14:58:13 28° SW 15:02:00 10° S daylight
18 Apr - 03:05:32 10° SW 03:10:11 76° NW 03:14:48 10° NE visible
18 Apr - 13:28:53 10° NNW 13:33:10 54° NE 13:37:28 10° SE daylight
18 Apr - 15:13:46 10° WSW 15:14:27 10° SW 15:15:09 10° SW daylight
19 Apr - 01:41:27 10° S 01:45:07 23° SE 01:48:45 10° ENE night (unlit)
19 Apr - 03:22:29 10° WSW 03:26:30 28° NW 03:30:29 10° NNE visible
19 Apr - 12:06:14 10° NNE 12:07:55 12° NE 12:09:36 10° ENE daylight
19 Apr - 13:45:10 10° NW 13:49:25 51° SW 13:53:42 10° SSE daylight
20 Apr - 01:56:45 10° SSW 02:01:21 60° SE 02:05:56 10° NE night (unlit)
20 Apr - 03:41:15 10° WNW 03:42:56 12° NW 03:44:37 10° NNW visible
20 Apr - 12:20:28 10° NNW 12:24:21 30° NE 12:28:12 10° ESE daylight
20 Apr - 14:02:33 10° W 14:05:40 19° SW 14:08:47 10° S daylight
